Regional Weather Roundup
Issued by NWS

Home | Current Version | Previous Version | Graphics & Text | Print | Product List | Glossary On
Versions: 1 2 3 4 5 6 7 8 9 10 11 12 13 14 15 16 17 18 19 20 21 22 23 24 25 26 27 28 29 30 31 32 33 34 35 36 37 38 39 40 41 42 43 44 45 46 47 48 49 50
000
ASUS43 KFSD 200402
RWRSD

WEATHER ROUNDUP FOR SOUTH DAKOTA
NATIONAL WEATHER SERVICE SIOUX FALLS SD
1100 PM CDT TUE AUG 19 2014

NOTE: "FAIR" INDICATES FEW OR NO CLOUDS BELOW 12,000 FEET WITH NO
SIGNIFICANT WEATHER AND/OR OBSTRUCTIONS TO VISIBILITY.


SDZ001>005-009-010-012>017-200500-
NORTHWEST AND NORTH CENTRAL SOUTH DAKOTA

CITY           SKY/WX    TMP DP  RH WIND       PRES   REMARKS
BUFFALO          N/A     73  56  54 SE12      29.67F
FAITH            N/A     74  59  59 SE16      29.74S
MOBRIDGE       MOCLDY    73  63  70 SE10      29.72S
$$

SDZ012>016-024>037-041>051-057-063-072>074-200500-
SOUTHWEST AND SOUTH CENTRAL SOUTH DAKOTA

CITY           SKY/WX    TMP DP  RH WIND       PRES   REMARKS
RAPID CTY ARPT PTCLDY    69  60  73 SE6       29.75S
PIERRE         PTCLDY    74  61  63 SE10      29.73R
CUSTER         PTCLDY    68  56  65 NE6       29.91R
ELLSWORTH AFB  PTCLDY    73  59  60 SE2       29.75F
PHILIP         PTCLDY    76  61  59 E13       29.73R
PINE RIDGE     MOCLDY    69  60  73 E17G25    29.80R
WINNER         FAIR      75  64  68 SE13      29.78R
$$

SDZ004>011-016>023-039-040-200500-
NORTHEAST SOUTH DAKOTA

CITY           SKY/WX    TMP DP  RH WIND       PRES   REMARKS
ABERDEEN       PTCLDY    64  63  96 SE7       29.77S
WATERTOWN      PTCLDY    68  62  81 S3        29.81S
SISSETON         N/A     66  65  96 CALM      29.78R
$$

SDZ017-020-022-023-036>040-048>070-200500-
SOUTHEAST SOUTH DAKOTA

CITY           SKY/WX    TMP DP  RH WIND       PRES   REMARKS
SIOUX FALLS    MOCLDY    73  63  70 S3        29.82S
HURON          PTCLDY    70  62  76 SE6       29.77S
CHAMBERLAIN    MOCLDY    71  64  80 SE10      29.77S
MITCHELL       PTCLDY    70  64  81 SE7       29.78F
YANKTON        MOCLDY    70  64  83 E7        29.79F
$$

ABBREVIATIONS USED IN REMARKS
   TC - TEMPERATURE IN CELSIUS
  WCI - WIND CHILL INDEX
   HX - HEAT INDEX
  VSB - VISIBILITY




USA.gov is the U.S. government's official web portal to all federal, state and local government web resources and services.